Newton, KS

6:26 AM CST on February 24, 2018 (GMT -0600)
Newton City County

Weather History for KEWK - January, 2013

Change the Weather History Date:

Monday, January 7, 2013

  Actual Average Record
Temperature  
Mean Temperature 40 °F -  
Max Temperature 51 °F 39 °F 68 °F (2006)
Min Temperature 30 °F 21 °F 3 °F (2015)
Degree Days  
Heating Degree Days 24    
Moisture  
Dew Point 21 °F    
Average Humidity 50    
Maximum Humidity 64    
Minimum Humidity 30    
Precipitation  
Precipitation 0.00 in - - ()
Sea Level Pressure  
Sea Level Pressure 30.11 in    
Wind  
Wind Speed 15 mph (SSW)    
Max Wind Speed 24 mph    
Max Gust Speed 31 mph    
Visibility 10 miles    
Events      
Averages and records for this station are not official NWS values.
T = Trace of Precipitation, MM = Missing Value Source: NWS Daily Summary

Daily Weather History Graph

Daily Weather History Graph

Search for Another Location

Airport or City:

Trip Planner

Search our weather history database for the weather conditions in past years. The results will help you decide how hot, cold, wet, or windy it might be!

Date:

Astronomy

Jan. 07, 2013 Rise Set
Actual Time 7:45 AM CST 5:25 PM CST
Civil Twilight 7:16 AM CST 5:54 PM CST
Nautical Twilight 6:43 AM CST 6:27 PM CST
Astronomical Twilight 6:11 AM CST 6:59 PM CST
Moon 3:11 AM CST (1/7) 1:36 PM CST (1/7)
Length of Visible Light 10h 38m
Length of Day
9h 40m
Waning Crescent, 22% of the Moon is Illuminated
Jan 7
Waning Crescent
Jan 11
New
Jan 18
First Quarter
Jan 26
Full
Feb 3
Last Quarter

Hourly Weather History & Observations

Time (CST) Temp. Windchill Dew Point Humidity Pressure Visibility Wind Dir Wind Speed Gust Speed Precip Events Conditions
12:15 AM 30.2 °F 21.3 °F 17.6 °F 60% 30.24 in 10.0 mi South 10.4 mph - N/A   Clear
12:35 AM 30.2 °F 21.3 °F 19.4 °F 64% 30.23 in 10.0 mi South 10.4 mph - N/A   Clear
12:55 AM 30.2 °F 20.8 °F 19.4 °F 64% 30.22 in 10.0 mi South 11.5 mph - N/A   Clear
1:15 AM 30.2 °F 20.2 °F 19.4 °F 64% 30.22 in 10.0 mi South 12.7 mph - N/A   Clear
1:35 AM 30.2 °F 21.3 °F 19.4 °F 64% 30.21 in 10.0 mi South 10.4 mph - N/A   Clear
1:55 AM 30.2 °F 20.8 °F 19.4 °F 64% 30.21 in 10.0 mi South 11.5 mph - N/A   Clear
2:15 AM 32.0 °F 21.6 °F 19.4 °F 60% 30.21 in 10.0 mi South 15.0 mph - N/A   Clear
2:35 AM 32.0 °F 21.6 °F 19.4 °F 60% 30.21 in 10.0 mi South 15.0 mph - N/A   Clear
2:55 AM 33.8 °F 23.9 °F 19.4 °F 56% 30.21 in 10.0 mi South 15.0 mph - N/A   Clear
3:15 AM 32.0 °F 22.1 °F 17.6 °F 55% 30.21 in 10.0 mi South 13.8 mph - N/A   Clear
3:35 AM 30.2 °F 20.2 °F 17.6 °F 60% 30.21 in 10.0 mi South 12.7 mph - N/A   Clear
3:55 AM 30.2 °F 18.9 °F 17.6 °F 60% 30.20 in 10.0 mi South 16.1 mph - N/A   Clear
4:15 AM 32.0 °F 20.5 °F 17.6 °F 55% 30.20 in 10.0 mi SSW 18.4 mph - N/A   Clear
4:35 AM 30.2 °F 19.3 °F 17.6 °F 60% 30.20 in 10.0 mi South 15.0 mph - N/A   Clear
4:55 AM 32.0 °F 21.2 °F 17.6 °F 55% 30.19 in 10.0 mi SSW 16.1 mph - N/A   Clear
5:15 AM 32.0 °F 21.2 °F 17.6 °F 55% 30.18 in 10.0 mi South 16.1 mph - N/A   Clear
5:35 AM 32.0 °F 20.8 °F 17.6 °F 55% 30.17 in 10.0 mi South 17.3 mph - N/A   Clear
5:55 AM 30.2 °F 19.3 °F 17.6 °F 60% 30.16 in 10.0 mi SSW 15.0 mph - N/A   Clear
6:15 AM 32.0 °F 21.6 °F 17.6 °F 55% 30.16 in 10.0 mi SSW 15.0 mph - N/A   Clear
6:35 AM 32.0 °F 20.8 °F 17.6 °F 55% 30.16 in 10.0 mi SSW 17.3 mph - N/A   Clear
6:55 AM 33.8 °F 22.5 °F 17.6 °F 52% 30.16 in 10.0 mi SSW 19.6 mph - N/A   Clear
7:15 AM 33.8 °F 22.8 °F 17.6 °F 52% 30.17 in 10.0 mi SSW 18.4 mph - N/A   Clear
7:35 AM 32.0 °F 20.8 °F 17.6 °F 55% 30.17 in 10.0 mi SSW 17.3 mph - N/A   Clear
7:55 AM 32.0 °F 21.6 °F 17.6 °F 55% 30.17 in 10.0 mi SSW 15.0 mph - N/A   Clear
8:15 AM 32.0 °F 20.5 °F 17.6 °F 55% 30.17 in 10.0 mi SSW 18.4 mph 23.0 mph N/A   Clear
8:35 AM 33.8 °F 23.2 °F 19.4 °F 56% 30.17 in 10.0 mi SSW 17.3 mph 24.2 mph N/A   Clear
8:55 AM 35.6 °F 24.2 °F 19.4 °F 52% 30.17 in 10.0 mi SSW 21.9 mph 28.8 mph N/A   Clear
9:15 AM 35.6 °F 24.2 °F 19.4 °F 52% 30.17 in 10.0 mi SSW 21.9 mph 26.5 mph N/A   Clear
9:35 AM 35.6 °F 24.5 °F 19.4 °F 52% 30.17 in 10.0 mi SSW 20.7 mph - N/A   Clear
9:55 AM 37.4 °F 26.4 °F 19.4 °F 48% 30.17 in 10.0 mi SSW 23.0 mph - N/A   Clear
10:15 AM 39.2 °F 29.6 °F 21.2 °F 49% 30.17 in 10.0 mi SSW 19.6 mph 24.2 mph N/A   Clear
10:35 AM 39.2 °F 29.6 °F 21.2 °F 49% 30.17 in 10.0 mi SSW 19.6 mph 23.0 mph N/A   Clear
10:55 AM 42.8 °F 33.8 °F 21.2 °F 42% 30.17 in 10.0 mi SSW 21.9 mph 28.8 mph N/A   Clear
11:15 AM 42.8 °F 34.0 °F 21.2 °F 42% 30.16 in 10.0 mi SSW 20.7 mph - N/A   Clear
11:35 AM 42.8 °F 34.5 °F 21.2 °F 42% 30.16 in 10.0 mi SSW 18.4 mph 25.3 mph N/A   Clear
11:55 AM 44.6 °F 35.7 °F 23.0 °F 43% 30.13 in 10.0 mi SSW 24.2 mph 31.1 mph N/A   Clear
12:15 PM 44.6 °F 36.4 °F 21.2 °F 39% 30.12 in 10.0 mi SSW 20.7 mph 31.1 mph N/A   Clear
12:35 PM 46.4 °F 39.0 °F 21.2 °F 37% 30.11 in 10.0 mi SSW 19.6 mph 27.6 mph N/A   Clear
1:15 PM 48.2 °F - 24.8 °F 40% 30.08 in 10.0 mi SSW 23.0 mph 26.5 mph N/A   Clear
1:35 PM 48.2 °F - 23.0 °F 37% 30.07 in 10.0 mi SSW 23.0 mph 28.8 mph N/A   Clear
1:55 PM 51.8 °F - 24.8 °F 35% 30.06 in 10.0 mi SSW 24.2 mph 28.8 mph N/A   Clear
2:15 PM 48.2 °F - 23.0 °F 37% 30.06 in 10.0 mi SSW 18.4 mph 24.2 mph N/A   Clear
2:35 PM 51.8 °F - 23.0 °F 33% 30.05 in 10.0 mi SSW 21.9 mph 27.6 mph N/A   Clear
2:55 PM 51.8 °F - 21.2 °F 30% 30.05 in 10.0 mi SSW 19.6 mph - N/A   Clear
3:15 PM 48.2 °F - 21.2 °F 34% 30.05 in 10.0 mi SSW 18.4 mph - N/A   Clear
3:35 PM 48.2 °F - 23.0 °F 37% 30.05 in 10.0 mi SSW 19.6 mph 24.2 mph N/A   Clear
3:55 PM 48.2 °F - 23.0 °F 37% 30.05 in 10.0 mi South 16.1 mph - N/A   Clear
4:15 PM 48.2 °F - 23.0 °F 37% 30.04 in 10.0 mi SSW 21.9 mph 27.6 mph N/A   Clear
4:35 PM 48.2 °F - 21.2 °F 34% 30.04 in 10.0 mi South 16.1 mph 23.0 mph N/A   Clear
5:15 PM 46.4 °F 39.8 °F 23.0 °F 40% 30.03 in 10.0 mi South 16.1 mph - N/A   Clear
5:35 PM 44.6 °F 38.1 °F 23.0 °F 43% 30.03 in 10.0 mi South 13.8 mph - N/A   Clear
5:55 PM 44.6 °F 38.1 °F 23.0 °F 43% 30.03 in 10.0 mi South 13.8 mph 20.7 mph N/A   Clear
6:15 PM 44.6 °F 38.4 °F 23.0 °F 43% 30.04 in 10.0 mi South 12.7 mph - N/A   Clear
6:35 PM 42.8 °F 35.4 °F 23.0 °F 46% 30.03 in 10.0 mi South 15.0 mph - N/A   Clear
6:55 PM 42.8 °F 35.1 °F 23.0 °F 46% 30.03 in 10.0 mi South 16.1 mph - N/A   Clear
7:15 PM 42.8 °F 35.4 °F 23.0 °F 46% 30.03 in 10.0 mi South 15.0 mph - N/A   Clear
7:35 PM 41.0 °F 33.1 °F 23.0 °F 49% 30.03 in 10.0 mi South 15.0 mph - N/A   Clear
7:55 PM 41.0 °F 33.1 °F 23.0 °F 49% 30.03 in 10.0 mi South 15.0 mph - N/A   Clear
8:15 PM 39.2 °F 30.5 °F 23.0 °F 52% 30.03 in 10.0 mi South 16.1 mph - N/A   Clear
8:35 PM 39.2 °F 29.8 °F 23.0 °F 52% 30.02 in 10.0 mi SSW 18.4 mph - N/A   Clear
8:55 PM 39.2 °F 30.5 °F 23.0 °F 52% 30.03 in 10.0 mi SSW 16.1 mph - N/A   Clear
9:15 PM 39.2 °F 30.5 °F 23.0 °F 52% 30.03 in 10.0 mi SSW 16.1 mph - N/A   Clear
9:35 PM 39.2 °F 30.2 °F 23.0 °F 52% 30.02 in 10.0 mi SSW 17.3 mph - N/A   Clear
9:55 PM 39.2 °F 30.2 °F 23.0 °F 52% 30.02 in 10.0 mi SSW 17.3 mph - N/A   Clear
10:15 PM 39.2 °F 30.5 °F 23.0 °F 52% 30.02 in 10.0 mi SSW 16.1 mph - N/A   Clear
10:35 PM 39.2 °F 30.8 °F 21.2 °F 49% 30.03 in 10.0 mi SSW 15.0 mph - N/A   Clear
10:55 PM 39.2 °F 31.2 °F 21.2 °F 49% 30.02 in 10.0 mi SSW 13.8 mph - N/A   Clear
11:15 PM 37.4 °F 29.3 °F 21.2 °F 52% 30.02 in 10.0 mi SSW 12.7 mph - N/A   Clear
11:35 PM 37.4 °F 29.3 °F 21.2 °F 52% 30.02 in 10.0 mi SSW 12.7 mph - N/A   Clear
11:55 PM 35.6 °F 27.5 °F 21.2 °F 56% 30.02 in 10.0 mi SSW 11.5 mph - N/A   Clear